User: anonymous   Login
Location: Unspecified
(0.0000°N, 0.0000°E)
Time: 18:57:46
(UTC+00:00)
Language:

NNS O-23 - Orbit

View from above orbital plane
View from above orbital plane
View from above satellite
View from above satellite

Ground track
Ground track

The orbit data is extracted from the following two-line orbital elements,

1 19070U 88033A   19077.61355223 +.00000064 +00000-0 +11251-3 0  9993
2 19070 090.3644 296.1726 0190306 182.4494 190.0695 13.27444212495995
Epoch (UTC): 18 March 2019 14:43:30
Eccentricity: 0.0190306
inclination: 90.3644°
perigee height: 1013 km
apogee height: 1300 km
right ascension of ascending node: 296.1726°
argument of perigee: 182.4494°
revolutions per day: 13.27444212
mean anomaly at epoch: 190.0695°
orbit number at epoch: 49599

The dashed part of the orbit path shows where the satellite is in the earth's shadow,  

DLR